Fairweather Grounds 92NM Southeast of Yakutat, AK (46083)

Conditions for Friday

Daily
Weekly
Monthly
Marine Data Graph

Marine & Boating Location Search

Enter a coastal zip code for marine weather.

General Information

Location: 58.237 North -137.986 West
Buoy Type: 6-meter NOMAD buoy
Buoy Hull: 6N31
Payload: ARES 4.4 payload
Owned by: NDBC
Windspeed: Measured by obtained from anemometer
Sea Surface: Measured by Intake
Note:

Weather and Wave Data

Time Temp Humidity Wind Dominant Wave Wind Wave Wave Swell Pressure
  Air
(°F)
Water
(°F)
  Dir Speed
(kts)
Speed
(mph)
Period
(sec)
Height
(ft)
Range
(ft)
Period
(sec)
Height
(ft)
Range
(ft)
Period
(sec)
Height
(ft)
Range
(ft)
Atmo.
(in)
Tend.
(in)
20:50 40 49 40 ESE 19.4 22.4 6 5.25 exactly 5.2 6 4.92 4.10 - 5.74 - - - 30.37 -0.03
21:50 40 49 37 SE 19.4 22.4 5 5.25 exactly 5.2 5 4.92 4.10 - 5.74 - - - 30.37 -
22:50 40 49 38 ESE 19.4 22.4 6 5.25 exactly 5.2 6 4.92 4.10 - 5.74 - - - 30.36 -0.01
23:50 40 49 37 SE 19.4 22.4 5 5.58 exactly 5.6 5 4.92 4.10 - 5.74 - - - 30.35 -0.01
00:50 40 49 39 SE 15.6 17.9 5 4.92 exactly 4.9 5 4.92 4.10 - 5.74 - - - 30.35 -0.01
01:50 40 49 37 SE 15.6 17.9 6 4.59 exactly 4.6 6 4.92 4.10 - 5.74 - - - 30.36 -
02:50 39 49 37 SE 15.6 17.9 5 5.25 exactly 5.2 5 4.92 4.10 - 5.74 - - - 30.36 -
03:50 39 49 38 ESE 13.6 15.7 5 4.59 exactly 4.6 5 4.92 4.10 - 5.74 - - - 30.35 -
04:50 39 49 36 SE 11.7 13.4 5 4.27 exactly 4.3 5 4.92 4.10 - 5.74 7 1.64 0.82 - 2.46 30.35 -0.01
05:50 39 49 38 SE 11.7 13.4 5 4.27 exactly 4.3 5 4.92 4.10 - 5.74 - - - 30.33 -0.03
06:50 39 49 39 SE 9.7 11.2 5 3.94 exactly 3.9 5 3.28 2.46 - 4.10 7 1.64 0.82 - 2.46 30.33 -0.02
07:50 39 48 39 SSE 7.8 8.9 4 2.95 exactly 3.0 4 1.64 0.82 - 2.46 4 1.64 0.82 - 2.46 30.32 -0.03
08:50 40 48 40 SSE 11.7 13.4 5 2.95 exactly 3.0 5 3.28 2.46 - 4.10 - - - 30.31 -0.02
09:50 40 48 38 SSE 7.8 8.9 5 2.30 exactly 2.3 4 1.64 0.82 - 2.46 5 1.64 0.82 - 2.46 30.31 -0.03
10:50 40 48 36 SE 3.9 4.5 4 2.30 exactly 2.3 4 1.64 0.82 - 2.46 4 1.64 0.82 - 2.46 30.30 -0.02
11:50 40 49 36 South 1.9 2.2 4 1.97 exactly 2.0 4 1.64 0.82 - 2.46 4 1.64 0.82 - 2.46 30.29 -0.02
12:50 40 49 38 SSW 3.9 4.5 4 1.97 exactly 2.0 4 1.64 0.82 - 2.46 14 1.64 0.82 - 2.46 30.29 -0.02
13:50 40 48 39 SW 3.9 4.5 4 1.64 exactly 1.6 4 1.64 0.82 - 2.46 4 1.64 0.82 - 2.46 30.27 -0.02
14:50 40 48 40 SW 1.9 2.2 5 1.64 exactly 1.6 4 1.64 0.82 - 2.46 5 1.64 0.82 - 2.46 30.26 -0.03
15:50 40 48 41 South 3.9 4.5 14 1.97 exactly 2.0 4 1.64 0.82 - 2.46 14 1.64 0.82 - 2.46 30.25 -0.04
16:50 40 48 43 South 1.9 2.2 14 1.64 exactly 1.6 4 1.64 0.82 - 2.46 14 1.64 0.82 - 2.46 30.22 -0.06
17:50 39 48 43 WSW 1.9 2.2 13 1.64 exactly 1.6 3 1.64 0.82 - 2.46 13 1.64 0.82 - 2.46 30.20 -0.06
18:50 39 48 45 South 1.9 2.2 16 2.30 exactly 2.3 3 1.64 0.82 - 2.46 16 1.64 0.82 - 2.46 30.18 -0.07
19:50 39 47 46 SSW 1.9 2.2 12 1.64 exactly 1.6 - - - 12 1.64 0.82 - 2.46 30.17 -0.05
20:50 39 48 44 South 1.9 2.2 11 1.97 exactly 2.0 - - - 11 1.64 0.82 - 2.46 30.16 -0.04
21:50 39 48 44 South 1.9 2.2 11 1.97 exactly 2.0 - - - 11 1.64 0.82 - 2.46 30.14 -0.04
22:50 39 48 40 - 0.0 0.0 12 2.62 exactly 2.6 - - - 12 3.28 2.46 - 4.10 30.13 -0.04
23:50 39 48 37 - 0.0 0.0 11 2.95 exactly 3.0 - - - 11 3.28 2.46 - 4.10 30.11 -0.04
00:50 39 47 37 North 1.9 2.2 12 2.95 exactly 3.0 - - - 12 3.28 2.46 - 4.10 30.10 -0.04
01:50 39 47 42 North 3.9 4.5 11 3.28 exactly 3.3 4 1.64 0.82 - 2.46 11 3.28 2.46 - 4.10 30.09 -0.04
02:50 39 47 49 NNE 3.9 4.5 11 3.28 exactly 3.3 4 1.64 0.82 - 2.46 11 3.28 2.46 - 4.10 30.07 -0.04
03:50 39 47 44 NE 3.9 4.5 11 3.28 exactly 3.3 4 1.64 0.82 - 2.46 11 3.28 2.46 - 4.10 30.05 -0.05

Detailed Wave Spectra

Time Water Depth Wave Height Spectral Peak Period Average Wave Period Sampling Interval Wave Record
20:00 463 ft 5.12 ft 5.0 sec 4.2 sec 0.6 sec 2400 sec
21:00 463 ft 5.28 ft 5.6 sec 4.3 sec 0.6 sec 2400 sec
22:00 463 ft 5.18 ft 5.0 sec 4.1 sec 0.6 sec 2400 sec
23:00 463 ft 5.15 ft 5.6 sec 4.3 sec 0.6 sec 2400 sec
00:00 463 ft 5.45 ft 4.8 sec 4.3 sec 0.6 sec 2400 sec
01:00 463 ft 4.79 ft 5.0 sec 4.2 sec 0.6 sec 2400 sec
02:00 463 ft 4.56 ft 5.6 sec 4.3 sec 0.6 sec 2400 sec
03:00 463 ft 5.12 ft 5.3 sec 4.4 sec 0.6 sec 2400 sec
04:00 463 ft 4.53 ft 5.0 sec 4.2 sec 0.6 sec 2400 sec
05:00 463 ft 4.36 ft 5.0 sec 4.2 sec 0.6 sec 2400 sec
06:00 463 ft 4.17 ft 4.5 sec 4.1 sec 0.6 sec 2400 sec
07:00 463 ft 3.81 ft 4.5 sec 3.9 sec 0.6 sec 2400 sec
08:00 463 ft 2.99 ft 4.3 sec 3.8 sec 0.6 sec 2400 sec
09:00 463 ft 2.89 ft 4.5 sec 3.7 sec 0.6 sec 2400 sec
10:00 463 ft 2.46 ft 4.5 sec 3.6 sec 0.6 sec 2400 sec
11:00 463 ft 2.33 ft 4.0 sec 3.7 sec 0.6 sec 2400 sec
12:00 463 ft 2.10 ft 4.0 sec 3.7 sec 0.6 sec 2400 sec
13:00 463 ft 1.87 ft 4.0 sec 3.6 sec 0.6 sec 2400 sec
14:00 463 ft 1.74 ft 4.2 sec 3.7 sec 0.6 sec 2400 sec
15:00 463 ft 1.77 ft 4.5 sec 3.8 sec 0.6 sec 2400 sec
16:00 463 ft 1.87 ft 13.8 sec 4.4 sec 0.6 sec 2400 sec
17:00 463 ft 1.54 ft 13.8 sec 4.2 sec 0.6 sec 2400 sec
18:00 463 ft 1.77 ft 12.9 sec 4.7 sec 0.6 sec 2400 sec
19:00 463 ft 2.17 ft 16.0 sec 6.0 sec 0.6 sec 2400 sec
20:00 463 ft 1.74 ft 12.1 sec 5.8 sec 0.6 sec 2400 sec
21:00 463 ft 1.87 ft 11.4 sec 6.2 sec 0.6 sec 2400 sec
22:00 463 ft 2.03 ft 10.8 sec 7.1 sec 0.6 sec 2400 sec
23:00 463 ft 2.69 ft 12.1 sec 8.5 sec 0.6 sec 2400 sec
00:00 463 ft 3.12 ft 10.8 sec 9.2 sec 0.6 sec 2400 sec
01:00 463 ft 2.99 ft 12.1 sec 8.6 sec 0.6 sec 2400 sec
02:00 463 ft 3.41 ft 11.4 sec 6.9 sec 0.6 sec 2400 sec
03:00 463 ft 3.41 ft 11.4 sec 6.9 sec 0.6 sec 2400 sec